Wind_Speed
126 123 114 105 102 100 99 98 97 93 93 96 90 86 86 86 91 87 82 79 78 71 71 70 71 76 77 73 72 70 71 72 75 76 77 76 76 77 78 76 69 62 61 57
126 125 118 117 115 110 106 101 102 100 102 98 97 90 87 86 83 86 84 81 78 76 76 73 74 78 71 70 70 71 74 78 80 77 76 76 75 73 68 61 59 56 53 53
123 119 121 121 121 116 112 107 109 106 106 98 94 90 86 84 84 82 79 76 74 75 72 73 76 72 70 71 73 76 79 81 80 75 71 73 67 59 56 51 47 47 49 50
120 122 120 122 120 125 118 111 108 109 106 99 97 86 83 78 78 79 78 75 72 74 74 74 72 71 72 75 78 80 77 71 69 70 70 60 56 50 49 44 43 45 46 48
115 119 121 122 123 121 116 116 115 113 108 106 99 92 80 88 76 79 80 80 76 74 72 72 73 75 77 78 77 68 64 66 65 64 59 57 48 50 43 40 40 42 45 45
112 116 118 118 120 117 112 117 119 114 112 110 104 100 76 86 86 87 87 79 76 76 74 75 78 76 72 67 62 59 60 58 59 56 49 43 42 42 37 37 41 42 43 42
117 113 112 115 116 113 111 111 110 108 105 91 90 88 71 79 80 87 85 80 75 71 72 71 69 62 59 58 53 48 51 54 50 40 38 34 35 32 34 38 39 41 39 35
118 117 112 111 110 111 109 107 105 102 96 89 87 74 67 73 71 73 72 69 67 65 61 59 54 54 51 47 44 43 49 45 39 29 26 29 27 33 35 36 39 34 30 31
112 117 116 113 109 107 106 104 101 100 97 90 81 67 66 65 66 66 62 55 56 52 51 51 49 46 42 37 37 42 39 32 22 19 22 25 31 32 34 37 31 26 27 31
98 107 114 116 113 106 102 100 98 95 92 85 78 70 62 65 68 64 55 49 49 49 45 44 43 32 33 30 34 34 29 18 16 20 24 26 31 31 35 30 23 22 25 22
88 94 105 111 113 113 108 101 95 87 80 73 71 67 67 67 65 63 55 51 48 44 42 41 29 32 24 24 29 20 18 17 19 22 25 29 28 32 32 22 18 19 20 19
83 88 95 101 109 112 112 107 99 88 77 67 58 55 60 61 65 56 52 43 41 40 38 34 28 24 19 20 18 16 17 19 21 23 28 27 28 31 25 16 17 18 17 20
71 82 91 91 94 102 105 106 101 92 82 69 58 47 53 54 54 47 44 38 41 38 34 26 26 20 17 18 17 18 17 19 20 23 25 24 28 28 19 12 14 17 17 21
54 76 89 90 85 84 91 97 97 91 80 71 55 53 52 54 51 41 37 41 36 31 31 23 20 17 18 15 19 19 18 17 20 25 23 26 28 24 15 11 13 13 17 20
47 57 71 82 79 69 73 79 88 86 82 73 66 60 57 61 52 41 38 39 37 31 30 27 22 16 20 17 21 22 16 18 21 25 23 27 27 21 15 10 9 12 16 20
39 45 52 64 70 64 63 64 69 77 80 76 70 65 65 71 56 47 41 41 37 33 33 30 22 21 22 19 21 21 16 18 23 24 24 27 26 19 13 9 8 11 15 19
27 31 39 46 50 55 58 62 60 66 75 77 71 69 73 71 59 53 48 46 42 38 35 31 22 24 21 20 23 26 23 23 27 23 24 28 25 18 12 12 11 12 13 18
22 26 33 41 41 49 57 63 61 60 66 71 77 73 78 73 60 57 53 51 45 39 35 34 26 24 18 19 19 24 23 24 25 21 24 27 25 17 13 12 12 11 13 14
17 21 23 25 30 36 46 57 60 60 61 66 75 75 77 66 61 58 56 53 45 40 34 31 25 26 19 19 17 18 18 21 22 21 25 26 22 18 13 12 13 11 12 15
19 22 25 28 32 35 41 51 56 58 62 67 73 76 75 62 56 55 54 52 46 41 34 30 29 25 20 19 17 16 18 18 22 22 25 24 16 12 8 14 15 11 10 14
27 28 27 32 38 41 45 51 60 62 63 66 70 71 66 54 58 53 47 37 36 36 39 35 32 26 21 19 16 15 16 20 20 21 23 20 12 8 8 14 15 11 9 12
29 31 33 32 34 38 43 50 59 64 58 64 64 54 47 55 54 50 47 36 30 28 36 39 32 25 24 18 15 14 19 19 19 21 22 16 9 8 7 12 15 13 8 9
31 33 32 32 32 34 37 42 55 60 62 60 47 48 53 55 61 58 50 42 29 43 38 31 27 26 25 19 15 11 15 19 18 20 20 12 7 7 5 9 13 11 6 3
28 31 32 34 34 34 34 38 48 57 55 47 46 53 54 64 64 53 50 46 49 43 33 30 27 21 19 21 17 12 14 17 16 18 17 7 4 5 3 7 11 7 6 1
27 31 32 31 35 34 33 40 47 59 57 49 48 50 60 66 60 54 47 41 45 39 34 26 25 25 19 18 16 13 11 11 13 15 11 5 2 2 1 4 9 9 8 5
28 33 32 32 39 45 52 50 51 62 65 57 53 65 71 69 59 52 50 50 47 41 34 27 23 25 25 21 12 12 8 8 11 12 8 3 2 2 2 5 7 11 11 8
Wind_Direction
236 238 241 239 240 240 243 242 242 242 245 249 251 250 252 253 257 259 260 263 267 270 273 278 281 284 286 288 290 292 294 296 300 298 295 295 295 295 296 300 302 303 301 301
237 237 240 239 238 241 244 243 243 243 247 250 253 249 250 253 255 257 261 265 269 271 275 277 281 283 285 286 289 293 294 296 295 294 293 293 294 295 300 304 303 298 298 299
237 237 238 238 239 240 240 243 243 244 246 249 248 248 252 252 256 258 261 264 266 269 273 275 277 281 282 284 289 291 294 293 292 292 292 292 296 301 306 299 295 294 297 300
235 235 237 238 240 241 240 240 241 243 245 249 249 247 251 254 254 256 259 261 265 267 268 273 279 279 282 285 286 291 290 290 290 291 290 295 299 303 299 292 291 294 298 301
237 236 236 238 238 240 240 242 244 245 247 248 250 253 257 252 255 255 257 259 261 264 270 275 279 280 281 285 288 288 289 287 288 288 293 295 296 297 293 292 294 301 304 305
235 237 238 237 238 239 240 243 245 248 248 248 252 255 247 249 249 254 256 258 264 268 272 273 274 279 282 282 283 284 285 284 286 290 292 292 295 293 295 302 306 306 306 306
232 235 236 237 238 239 241 243 243 245 249 250 249 251 250 249 249 251 254 258 265 267 270 268 272 274 277 282 282 282 282 284 289 286 287 293 291 298 305 306 306 307 311 316
231 233 233 236 237 238 238 240 242 245 247 246 246 248 250 249 251 254 256 258 261 263 264 266 271 275 275 275 277 278 278 286 288 286 296 294 306 309 307 307 309 312 314 317
230 231 232 234 235 237 238 239 240 241 242 243 246 244 244 251 252 249 251 253 257 260 264 269 273 272 270 268 270 270 278 283 282 299 302 307 310 308 309 309 310 315 319 320
229 230 232 233 234 236 238 239 240 240 241 241 242 240 242 246 250 250 250 253 256 260 266 269 267 259 261 262 267 276 277 281 293 304 309 310 308 306 309 311 314 321 323 324
226 229 231 231 232 234 235 237 239 241 241 240 239 238 237 241 242 248 251 253 254 257 258 256 250 249 253 271 270 269 274 289 294 307 309 307 306 308 310 312 317 325 323 324
227 227 229 231 231 231 232 234 235 236 237 238 236 235 236 238 239 245 247 243 241 237 239 243 233 239 267 271 257 273 286 293 307 310 309 307 310 313 311 311 320 322 330 327
226 229 229 231 232 230 231 233 234 234 234 232 230 229 233 233 235 239 232 221 222 224 228 225 235 240 272 252 248 275 293 300 308 312 308 308 313 316 311 303 313 328 340 329
219 224 227 230 231 230 230 231 233 233 231 229 222 218 221 219 224 223 214 213 216 219 224 225 221 241 271 266 254 270 291 309 309 312 309 311 315 316 303 292 319 335 336 339
221 224 225 229 231 229 228 229 230 230 228 223 220 216 217 221 224 213 208 212 217 219 226 227 235 254 269 273 262 268 291 316 314 317 314 315 319 312 294 286 315 337 341 344
222 223 223 226 228 227 225 226 226 225 225 221 217 214 217 221 222 215 210 214 218 218 225 235 247 255 258 268 253 267 288 322 320 321 318 321 321 304 292 268 296 322 339 342
218 221 223 226 224 222 217 219 220 219 220 217 213 211 217 221 218 217 212 218 219 221 227 238 240 250 252 260 258 257 279 299 312 320 324 319 315 294 282 259 289 301 319 332
209 209 212 217 216 214 212 210 210 211 214 211 208 208 217 219 212 216 214 217 220 220 222 235 239 247 249 252 255 261 279 290 308 320 322 316 310 289 285 253 267 290 316 334
193 195 201 210 212 209 210 206 203 202 205 204 204 206 217 213 208 212 214 216 213 214 219 232 233 232 238 241 245 266 293 299 320 324 320 315 301 284 273 242 251 285 311 341
160 166 176 185 190 195 200 199 195 196 199 196 199 205 213 205 200 207 210 212 212 215 214 219 221 225 229 230 248 263 291 302 324 324 320 316 298 286 274 228 241 279 310 328
152 157 169 179 180 185 189 188 189 190 193 191 195 203 207 198 202 204 205 198 201 206 209 217 222 228 224 227 247 275 287 311 321 320 319 314 302 303 262 228 237 266 299 335
154 162 164 169 176 178 184 184 183 185 187 185 191 194 190 194 196 186 177 178 186 200 214 224 219 221 218 227 239 268 294 308 324 318 318 310 312 311 272 230 230 251 282 349
160 162 161 165 171 174 180 180 181 182 183 185 179 176 179 176 174 173 168 174 171 192 212 217 217 210 209 224 229 286 302 317 324 319 315 306 317 319 279 230 226 234 253 9
163 162 162 165 160 166 169 171 176 178 177 177 173 175 166 165 169 168 169 180 187 197 211 213 198 202 208 217 227 262 289 318 320 317 313 299 308 316 306 218 204 212 201 222
165 163 164 162 154 155 155 157 159 166 169 175 176 167 164 165 173 177 180 186 190 189 193 203 204 197 194 213 216 261 289 323 317 315 315 298 276 302 355 163 177 186 178 134
173 165 164 160 148 144 138 139 154 164 166 169 168 162 162 168 168 177 178 179 175 181 189 189 193 198 196 193 214 254 284 340 318 314 330 318 212 157 133 120 156 181 179 182
Height
10587 10596 10621 10642 10647 10654 10667 10677 10684 10694 10695 10693 10714 10735 10735 10738 10740 10751 10760 10763 10762 10764 10764 10765 10762 10764 10764 10760 10756 10754 10752 10750 10748 10743 10735 10729 10721 10714 10706 10700 10694 10687 10682 10675
10559 10589 10600 10609 10623 10636 10647 10659 10665 10674 10671 10681 10691 10714 10723 10729 10736 10739 10744 10747 10751 10752 10755 10751 10753 10754 10754 10750 10747 10745 10740 10738 10734 10730 10723 10715 10708 10703 10697 10691 10685 10678 10672 10666
10542 10568 10570 10584 10596 10612 10626 10636 10642 10653 10654 10669 10678 10698 10707 10720 10726 10730 10735 10738 10739 10744 10743 10740 10743 10745 10743 10741 10739 10736 10733 10726 10721 10716 10709 10701 10697 10693 10689 10683 10676 10669 10664 10658
10519 10537 10546 10562 10574 10583 10602 10612 10625 10635 10640 10659 10659 10688 10697 10711 10718 10723 10724 10722 10729 10734 10731 10731 10734 10733 10733 10732 10728 10727 10721 10714 10708 10702 10696 10693 10689 10686 10682 10676 10670 10664 10657 10652
10504 10513 10523 10534 10552 10557 10581 10588 10605 10615 10626 10637 10656 10662 10713 10694 10709 10708 10706 10708 10720 10721 10724 10724 10723 10721 10721 10720 10718 10714 10709 10703 10696 10690 10686 10683 10682 10678 10673 10667 10662 10653 10647 10642
10477 10485 10497 10515 10524 10542 10558 10572 10585 10594 10605 10627 10649 10650 10698 10676 10691 10688 10687 10707 10712 10716 10715 10713 10710 10711 10711 10709 10707 10703 10697 10691 10686 10682 10678 10676 10673 10668 10661 10655 10649 10644 10639 10633
10448 10465 10481 10492 10506 10524 10541 10554 10565 10575 10591 10626 10628 10637 10677 10664 10676 10668 10687 10696 10703 10704 10701 10698 10699 10700 10700 10699 10695 10692 10687 10682 10678 10674 10671 10668 10664 10658 10653 10648 10642 10637 10630 10623
10422 10443 10461 10472 10491 10504 10520 10534 10550 10564 10585 10600 10609 10639 10657 10647 10663 10667 10676 10686 10688 10688 10687 10686 10691 10692 10690 10689 10686 10683 10677 10674 10671 10668 10667 10662 10658 10652 10646 10641 10636 10631 10625 10619
10403 10422 10440 10452 10467 10484 10501 10515 10531 10544 10561 10582 10605 10632 10638 10640 10640 10650 10660 10672 10671 10675 10676 10678 10680 10682 10679 10678 10677 10673 10671 10667 10665 10664 10661 10657 10653 10646 10641 10636 10631 10626 10620 10615
10387 10404 10416 10432 10449 10468 10483 10496 10509 10530 10548 10576 10598 10616 10633 10629 10620 10634 10650 10662 10659 10662 10668 10671 10672 10672 10672 10671 10668 10665 10663 10661 10660 10658 10656 10652 10647 10641 10636 10631 10625 10622 10617 10611
10370 10384 10394 10408 10430 10445 10460 10479 10497 10518 10538 10566 10586 10607 10611 10613 10603 10622 10644 10649 10647 10653 10658 10660 10663 10663 10664 10662 10660 10659 10657 10656 10655 10652 10650 10646 10640 10635 10631 10626 10623 10619 10615 10611
10355 10365 10373 10389 10402 10420 10439 10461 10480 10504 10532 10554 10573 10591 10594 10595 10586 10615 10629 10633 10635 10642 10648 10652 10655 10656 10656 10654 10654 10654 10653 10652 10649 10647 10644 10639 10635 10630 10625 10622 10620 10618 10613 10608
10342 10357 10359 10368 10382 10403 10429 10446 10466 10494 10516 10542 10561 10581 10580 10584 10585 10606 10619 10624 10628 10634 10641 10646 10648 10650 10650 10648 10649 10650 10649 10647 10645 10642 10638 10635 10630 10625 10621 10620 10619 10615 10610 10606
10327 10329 10339 10351 10364 10388 10414 10432 10452 10477 10502 10532 10556 10563 10566 10569 10577 10597 10609 10617 10622 10631 10635 10639 10642 10643 10643 10643 10644 10646 10645 10643 10640 10637 10634 10629 10625 10621 10618 10618 10616 10612 10609 10605
10312 10318 10332 10339 10355 10382 10401 10418 10438 10459 10490 10512 10539 10552 10556 10556 10572 10591 10603 10610 10615 10623 10628 10634 10637 10638 10638 10638 10639 10642 10642 10639 10636 10632 10628 10624 10620 10616 10615 10615 10614 10612 10609 10605
10304 10312 10321 10330 10348 10369 10391 10406 10421 10444 10470 10501 10522 10541 10544 10539 10566 10583 10594 10601 10607 10616 10622 10626 10631 10632 10633 10634 10636 10637 10637 10634 10632 10628 10623 10619 10615 10613 10612 10612 10612 10611 10609 10605
10300 10307 10317 10327 10343 10360 10378 10392 10407 10431 10451 10479 10507 10522 10521 10528 10559 10573 10585 10592 10598 10607 10614 10619 10624 10626 10629 10629 10631 10632 10631 10630 10627 10623 10619 10616 10612 10610 10609 10609 10610 10610 10608 10605
10295 10302 10309 10317 10332 10345 10358 10375 10395 10416 10434 10460 10480 10494 10495 10515 10549 10561 10573 10580 10590 10601 10607 10612 10618 10621 10624 10625 10626 10627 10627 10626 10623 10619 10616 10613 10609 10607 10606 10607 10609 10609 10607 10605
10296 10303 10311 10320 10330 10341 10352 10366 10384 10403 10424 10444 10465 10481 10481 10508 10534 10549 10562 10572 10583 10593 10602 10608 10612 10615 10619 10621 10623 10624 10623 10622 10618 10614 10612 10609 10605 10603 10602 10604 10606 10607 10605 10603
10295 10301 10306 10313 10322 10332 10343 10358 10379 10397 10410 10428 10448 10463 10472 10508 10532 10542 10552 10564 10577 10587 10596 10601 10605 10610 10614 10617 10619 10620 10619 10617 10614 10611 10609 10606 10602 10599 10599 10601 10604 10605 10604 10602
10293 10298 10305 10312 10316 10324 10334 10347 10364 10385 10401 10419 10437 10448 10475 10509 10520 10534 10546 10559 10569 10581 10590 10594 10599 10605 10609 10613 10616 10617 10616 10613 10610 10609 10607 10604 10600 10598 10598 10599 10601 10603 10603 10601
10295 10299 10303 10310 10319 10326 10335 10348 10363 10378 10400 10415 10432 10456 10484 10496 10512 10529 10541 10552 10566 10577 10584 10590 10596 10601 10606 10609 10612 10614 10613 10611 10608 10607 10604 10601 10598 10597 10597 10597 10599 10601 10603 10601
10300 10303 10309 10315 10323 10332 10339 10350 10364 10380 10398 10416 10440 10457 10471 10490 10507 10521 10533 10547 10562 10572 10579 10586 10592 10597 10602 10605 10609 10612 10611 10609 10606 10605 10602 10599 10598 10596 10596 10596 10598 10600 10601 10602
10309 10313 10317 10322 10329 10334 10344 10356 10369 10387 10405 10426 10441 10455 10471 10488 10504 10518 10529 10541 10554 10567 10576 10583 10588 10593 10598 10601 10605 10608 10609 10606 10605 10603 10600 10598 10597 10596 10595 10594 10596 10598 10600 10602
10317 10320 10323 10328 10335 10344 10355 10365 10376 10392 10409 10427 10442 10457 10472 10489 10505 10518 10530 10542 10555 10566 10571 10578 10585 10589 10593 10598 10602 10604 10605 10605 10605 10603 10599 10597 10597 10597 10595 10594 10595 10598 10600 10602
10322 10326 10331 10336 10343 10351 10362 10372 10382 10395 10411 10428 10445 10458 10471 10485 10499 10516 10530 10542 10551 10559 10567 10576 10581 10584 10589 10594 10599 10601 10603 10602 10604 10603 10599 10597 10597 10597 10597 10596 10596 10598 10600 10603